TimeAKST,TemperatureF,Dew PointF,Humidity,Sea Level PressureIn,VisibilityMPH,Wind Direction,Wind SpeedMPH,Gust SpeedMPH,PrecipitationIn,Events,Conditions,WindDirDegrees,DateUTC
12:53 AM,28.0,21.9,78,29.81,10.0,NNE,5.8,-,N/A,,Unknown,30,2013-01-09 09:53:00
1:53 AM,27.0,21.9,81,29.84,10.0,North,3.5,-,N/A,,Unknown,360,2013-01-09 10:53:00
3:53 AM,26.1,21.0,81,29.88,10.0,NNE,3.5,-,N/A,,Scattered Clouds,30,2013-01-09 12:53:00
4:53 AM,24.1,19.9,84,29.91,10.0,NNE,4.6,-,N/A,,Scattered Clouds,30,2013-01-09 13:53:00
5:53 AM,24.1,19.9,84,29.94,10.0,Calm,Calm,-,N/A,,Scattered Clouds,0,2013-01-09 14:53:00
6:53 AM,23.0,19.9,88,29.96,10.0,Calm,Calm,-,N/A,,Partly Cloudy,0,2013-01-09 15:53:00
7:53 AM,21.0,18.0,88,29.99,10.0,NE,5.8,-,N/A,,Partly Cloudy,40,2013-01-09 16:53:00
9:53 AM,21.0,18.0,88,30.03,10.0,Calm,Calm,-,N/A,,Clear,0,2013-01-09 18:53:00
10:53 AM,21.9,18.0,85,30.03,10.0,NE,3.5,-,N/A,,Partly Cloudy,50,2013-01-09 19:53:00
11:53 AM,21.9,19.0,89,30.04,10.0,Calm,Calm,-,N/A,,Partly Cloudy,0,2013-01-09 20:53:00
12:53 PM,26.1,19.0,75,30.05,10.0,NE,3.5,-,N/A,,Partly Cloudy,50,2013-01-09 21:53:00
1:53 PM,28.9,21.9,75,30.06,10.0,Calm,Calm,-,N/A,,Overcast,0,2013-01-09 22:53:00
2:53 PM,28.9,16.0,58,30.08,10.0,NE,5.8,-,N/A,,Overcast,40,2013-01-09 23:53:00
3:53 PM,30.0,16.0,56,30.10,10.0,NNE,5.8,17.3,N/A,,Overcast,30,2013-01-10 00:53:00
4:53 PM,28.9,14.0,54,30.12,10.0,NNE,13.8,21.9,N/A,,Overcast,30,2013-01-10 01:53:00
5:53 PM,30.0,14.0,51,30.14,10.0,NE,6.9,19.6,N/A,,Overcast,50,2013-01-10 02:53:00
6:53 PM,28.9,16.0,58,30.15,10.0,Calm,Calm,-,N/A,,Overcast,0,2013-01-10 03:53:00
7:53 PM,28.0,12.9,53,30.16,10.0,NE,10.4,16.1,N/A,,Overcast,40,2013-01-10 04:53:00
8:53 PM,28.0,12.0,51,30.17,10.0,NE,11.5,21.9,N/A,,Overcast,40,2013-01-10 05:53:00
9:53 PM,26.1,10.9,53,30.19,10.0,NE,9.2,26.5,N/A,,Partly Cloudy,50,2013-01-10 06:53:00
10:53 PM,25.0,10.0,53,30.19,10.0,ENE,18.4,26.5,N/A,,Partly Cloudy,60,2013-01-10 07:53:00
11:53 PM,24.1,10.0,55,30.21,10.0,NE,11.5,21.9,N/A,,Clear,40,2013-01-10 08:53:00